EW3591 Weather Reports


Display with metric or nautical units.
time (UTC)temp
F
wind
direction
speed
MPH
gust
MPH
rain 1hr
in
rain 24hr
in
rain mn
in
humidity
%
barometer
mb
20260508060636 42 197 0.0 2.0 0.00 0.02 0.00 86 1011.3
20260508060436 42 272 0.0 3.0 0.00 0.02 0.00 86 1011.2
20260508060236 42 299 0.0 5.0 0.00 0.02 0.00 86 1011.2
20260508060035 42 188 1.0 5.0 0.00 0.02 0.00 85 1011.2
20260508055835 42 136 0.0 5.0 0.00 0.02 0.00 85 1011.2
20260508055635 42 200 1.0 5.0 0.00 0.02 0.00 85 1011.3
20260508055434 42 206 1.0 5.0 0.00 0.02 0.00 85 1011.2
20260508055234 42 173 0.0 3.0 0.00 0.02 0.00 85 1011.2
20260508055034 42 177 1.0 3.0 0.00 0.02 0.00 85 1011.3
20260508054834 42 218 1.0 3.0 0.00 0.02 0.00 85 1011.3
20260508054633 42 271 1.0 3.0 0.00 0.02 0.00 85 1011.3
20260508054433 42 271 1.0 3.0 0.00 0.02 0.00 85 1011.3
20260508054233 42 264 0.0 3.0 0.00 0.02 0.00 85 1011.3
20260508054032 42 218 0.0 2.0 0.00 0.02 0.00 85 1011.3
20260508053832 42 185 0.0 3.0 0.00 0.02 0.00 85 1011.3
20260508053632 42 108 0.0 3.0 0.00 0.02 0.00 85 1011.3
20260508053431 42 108 0.0 3.0 0.00 0.02 0.00 85 1011.2
20260508053231 42 131 0.0 5.0 0.00 0.02 0.00 85 1011.4
20260508053031 42 104 1.0 5.0 0.00 0.02 0.00 85 1011.4
20260508052831 42 116 1.0 5.0 0.00 0.02 0.00 85 1011.5
20260508052630 42 219 1.0 5.0 0.00 0.02 0.00 85 1011.4
20260508052430 42 131 1.0 5.0 0.00 0.02 0.00 85 1011.5
20260508052230 42 335 1.0 4.0 0.00 0.02 0.00 86 1011.5
20260508052029 42 41 0.0 5.0 0.00 0.02 0.00 86 1011.5
20260508051829 42 13 1.0 5.0 0.00 0.02 0.00 86 1011.4
20260508051629 42 246 0.0 5.0 0.00 0.02 0.00 86 1011.4
20260508051428 42 249 1.0 5.0 0.00 0.02 0.00 86 1011.4
20260508051228 42 301 1.0 5.0 0.00 0.02 0.00 86 1011.5
20260508051028 42 331 0.0 2.0 0.00 0.02 0.00 86 1011.5
20260508050828 42 312 0.0 2.0 0.00 0.02 0.00 86 1011.5
20260508050627 41 245 0.0 2.0 0.00 0.02 0.00 86 1011.5
20260508050427 41 180 1.0 2.0 0.00 0.02 0.00 87 1011.5
20260508050227 41 74 0.0 2.0 0.00 0.02 0.00 87 1011.5
20260508050026 41 249 0.0 2.0 0.00 0.02 0.00 87 1011.5
20260508045826 41 249 0.0 3.0 0.00 0.02 0.00 87 1011.5
20260508045626 41 250 0.0 4.0 0.00 0.02 0.00 87 1011.4
20260508045425 41 249 0.0 4.0 0.00 0.02 0.00 88 1011.4
20260508045225 41 246 0.0 4.0 0.00 0.02 0.00 88 1011.4
20260508045025 41 237 1.0 4.0 0.00 0.02 0.00 88 1011.4
20260508044825 41 212 0.0 4.0 0.00 0.02 0.00 88 1011.4
20260508044624 41 219 0.0 2.0 0.00 0.02 0.00 88 1011.4
20260508044424 41 219 0.0 3.0 0.00 0.02 0.00 88 1011.4
20260508044224 41 219 0.0 3.0 0.00 0.02 0.00 88 1011.4
20260508044023 41 219 0.0 3.0 0.00 0.02 0.00 88 1011.4
20260508043823 41 220 0.0 3.0 0.00 0.02 0.00 88 1011.4
20260508043623 41 256 0.0 3.0 0.00 0.02 0.00 88 1011.4
20260508043422 40 283 0.0 2.0 0.00 0.02 0.00 88 1011.4
20260508043222 40 283 0.0 1.0 0.00 0.02 0.00 88 1011.4
20260508043022 41 283 0.0 1.0 0.00 0.02 0.00 88 1011.3
20260508042822 41 283 0.0 1.0 0.00 0.02 0.00 88 1011.3
20260508042621 41 273 0.0 1.0 0.00 0.02 0.00 88 1011.3
20260508042421 41 182 0.0 1.0 0.00 0.02 0.00 88 1011.3
20260508042221 41 165 0.0 1.0 0.00 0.02 0.00 88 1011.3
20260508042020 41 184 0.0 2.0 0.00 0.02 0.00 88 1011.3
20260508041820 41 179 0.0 2.0 0.00 0.02 0.00 87 1011.4
20260508041620 41 150 0.0 2.0 0.00 0.02 0.00 87 1011.4
20260508041419 41 150 0.0 3.0 0.00 0.02 0.00 87 1011.4
20260508041219 41 157 0.0 4.0 0.00 0.02 0.00 87 1011.4
20260508041019 41 215 1.0 4.0 0.00 0.02 0.00 87 1011.4
20260508040819 41 238 1.0 5.0 0.00 0.02 0.00 87 1011.4
20260508040618 41 238 1.0 5.0 0.00 0.02 0.00 87 1011.4
20260508040418 41 219 1.0 5.0 0.00 0.02 0.00 87 1011.4
20260508040218 41 208 1.0 5.0 0.00 0.02 0.00 87 1011.4
20260508040017 41 218 1.0 5.0 0.00 0.02 0.00 86 1011.4
20260508035817 41 238 1.0 5.0 0.00 0.02 0.02 86 1011.4
20260508035617 41 228 1.0 5.0 0.00 0.02 0.02 86 1011.4
20260508035416 41 188 0.0 5.0 0.00 0.02 0.02 86 1011.4
20260508035216 41 205 1.0 4.0 0.00 0.02 0.02 86 1011.3
20260508035016 40 220 0.0 4.0 0.00 0.02 0.02 86 1011.4
20260508034816 40 217 0.0 4.0 0.00 0.02 0.02 86 1011.3
20260508034615 40 234 0.0 2.0 0.00 0.02 0.02 86 1011.3
20260508034415 40 234 0.0 2.0 0.00 0.02 0.02 86 1011.3
20260508034215 40 234 0.0 2.0 0.00 0.02 0.02 86 1011.3
20260508034014 40 234 0.0 2.0 0.00 0.02 0.02 86 1011.3
20260508033814 40 234 0.0 2.0 0.00 0.02 0.02 86 1011.3
20260508033614 40 230 0.0 3.0 0.00 0.02 0.02 86 1011.3
20260508033413 40 226 0.0 3.0 0.00 0.02 0.02 86 1011.3
20260508033213 40 220 0.0 3.0 0.00 0.02 0.02 86 1011.2
20260508033013 40 179 0.0 3.0 0.00 0.02 0.02 86 1011.2
20260508032813 40 192 0.0 3.0 0.00 0.02 0.02 86 1011.2
20260508032612 40 249 0.0 3.0 0.00 0.02 0.02 86 1011.3
20260508032412 40 245 0.0 3.0 0.00 0.02 0.02 86 1011.3
20260508032212 40 215 0.0 3.0 0.00 0.02 0.02 86 1011.3
20260508032011 40 221 1.0 3.0 0.00 0.02 0.02 86 1011.3
20260508031811 40 179 0.0 2.0 0.00 0.02 0.02 86 1011.4
20260508031611 40 144 0.0 2.0 0.00 0.02 0.02 86 1011.3
20260508031410 40 145 0.0 2.0 0.00 0.02 0.02 86 1011.3
20260508031210 40 263 0.0 2.0 0.00 0.02 0.02 86 1011.3
20260508031010 40 0 0.0 3.0 0.00 0.02 0.02 86 1011.3
20260508030809 40 0 0.0 3.0 0.00 0.02 0.02 86 1011.4
20260508030609 40 0 0.0 3.0 0.00 0.02 0.02 86 1011.3
20260508030409 40 145 0.0 3.0 0.00 0.02 0.02 86 1011.3
20260508030209 40 154 0.0 3.0 0.00 0.02 0.02 86 1011.4
20260508030008 40 231 0.0 2.0 0.00 0.02 0.02 86 1011.4
20260508025808 40 231 0.0 2.0 0.00 0.02 0.02 86 1011.4
20260508025608 40 231 0.0 2.0 0.00 0.02 0.02 86 1011.4
20260508025407 40 231 0.0 2.0 0.00 0.02 0.02 86 1011.4
20260508025207 40 231 0.0 2.0 0.00 0.02 0.02 86 1011.5
20260508025007 40 231 0.0 2.0 0.00 0.02 0.02 86 1011.5
20260508024806 40 231 0.0 2.0 0.00 0.02 0.02 86 1011.4
20260508024606 41 231 0.0 2.0 0.00 0.02 0.02 86 1011.4
20260508024406 41 231 0.0 2.0 0.00 0.02 0.02 86 1011.4
20260508024206 41 226 0.0 2.0 0.00 0.02 0.02 86 1011.4
20260508024005 41 217 0.0 2.0 0.00 0.02 0.02 86 1011.4
20260508023805 41 216 0.0 2.0 0.00 0.02 0.02 86 1011.4
20260508023605 41 216 0.0 2.0 0.00 0.02 0.02 86 1011.4
20260508023404 41 217 0.0 3.0 0.00 0.02 0.02 86 1011.4
20260508023204 41 217 0.0 3.0 0.00 0.02 0.02 86 1011.4
20260508023004 41 212 0.0 3.0 0.00 0.02 0.02 86 1011.4
20260508022803 41 211 0.0 3.0 0.00 0.02 0.02 86 1011.4
20260508022603 41 223 0.0 2.0 0.00 0.02 0.02 85 1011.4
20260508022403 41 223 0.0 2.0 0.00 0.02 0.02 85 1011.4
20260508022203 41 219 0.0 2.0 0.00 0.02 0.02 85 1011.4
20260508022003 41 214 0.0 2.0 0.00 0.02 0.02 85 1011.4
20260508021802 41 214 0.0 2.0 0.00 0.02 0.02 85 1011.4
20260508021602 41 214 0.0 2.0 0.00 0.02 0.02 85 1011.3
20260508021401 41 214 0.0 2.0 0.00 0.02 0.02 85 1011.3
20260508021201 41 218 0.0 2.0 0.00 0.02 0.02 85 1011.3
20260508021001 41 217 0.0 2.0 0.00 0.02 0.02 85 1011.3
20260508020800 41 201 0.0 1.0 0.00 0.02 0.02 85 1011.3
20260508020600 41 201 0.0 1.0 0.00 0.02 0.02 84 1011.3
20260508020400 42 201 0.0 2.0 0.00 0.02 0.02 84 1011.3
20260508020200 42 201 0.0 2.0 0.00 0.02 0.02 84 1011.3
20260508015959 42 0 0.0 2.0 0.00 0.02 0.02 84 1011.3
20260508015759 42 210 0.0 2.0 0.00 0.02 0.02 84 1011.2
20260508015559 42 235 0.0 2.0 0.00 0.02 0.02 84 1011.2
20260508015358 42 261 0.0 2.0 0.00 0.02 0.02 84 1011.2
20260508015158 42 131 0.0 2.0 0.00 0.02 0.02 84 1011.2
20260508014958 42 131 0.0 2.0 0.00 0.02 0.02 83 1011.2
20260508014757 42 141 0.0 2.0 0.00 0.02 0.02 84 1011.1
20260508014557 42 159 0.0 2.0 0.00 0.02 0.02 83 1011.2
20260508014357 42 133 0.0 2.0 0.00 0.02 0.02 83 1011.1
20260508014157 42 53 0.0 2.0 0.00 0.02 0.02 83 1011.1
20260508013956 42 53 0.0 2.0 0.00 0.02 0.02 83 1011.2
20260508013756 42 53 0.0 2.0 0.00 0.02 0.02 83 1011.1
20260508013556 43 53 0.0 2.0 0.00 0.02 0.02 83 1011.1
20260508013355 43 51 0.0 2.0 0.00 0.02 0.02 83 1011.1
20260508013155 43 0 0.0 2.0 0.00 0.02 0.02 83 1011.1
20260508012955 43 48 0.0 2.0 0.00 0.02 0.02 83 1011.0
20260508012754 43 0 0.0 2.0 0.00 0.02 0.02 83 1011.1
20260508012554 43 48 0.0 2.0 0.00 0.02 0.02 83 1011.1
20260508012354 43 48 0.0 2.0 0.00 0.02 0.02 82 1011.1
20260508012154 43 48 0.0 2.0 0.00 0.02 0.02 82 1011.0
20260508011953 43 48 0.0 2.0 0.00 0.02 0.02 82 1011.0
20260508011753 43 48 0.0 2.0 0.00 0.02 0.02 82 1011.0
20260508011553 43 48 0.0 2.0 0.00 0.02 0.02 82 1010.9
20260508011352 43 48 0.0 2.0 0.00 0.02 0.02 82 1010.9
20260508011152 43 48 0.0 2.0 0.00 0.02 0.02 82 1010.9
20260508010952 43 48 0.0 1.0 0.00 0.02 0.02 82 1010.9
20260508010751 43 0 0.0 1.0 0.00 0.02 0.02 82 1010.9
20260508010551 44 0 0.0 0.0 0.00 0.02 0.02 81 1010.9
20260508010351 44 0 0.0 0.0 0.00 0.02 0.02 81 1010.8
20260508010151 44 0 0.0 2.0 0.00 0.02 0.02 80 1010.8
20260508005950 44 0 0.0 2.0 0.00 0.02 0.02 80 1010.8
20260508005750 44 0 0.0 2.0 0.00 0.02 0.02 80 1010.7
20260508005550 44 48 0.0 2.0 0.00 0.02 0.02 79 1010.7
20260508005349 44 48 0.0 2.0 0.00 0.02 0.02 79 1010.7
20260508005149 44 48 0.0 2.0 0.00 0.02 0.02 79 1010.8
20260508004949 44 48 0.0 4.0 0.00 0.02 0.02 79 1010.7
20260508004748 45 48 0.0 4.0 0.00 0.02 0.02 79 1010.7
20260508004548 45 48 0.0 4.0 0.00 0.02 0.02 79 1010.8
20260508004348 45 47 1.0 4.0 0.00 0.02 0.02 79 1010.7
20260508004148 45 32 1.0 4.0 0.00 0.02 0.02 78 1010.8
20260508003947 45 22 0.0 3.0 0.00 0.02 0.02 79 1010.7
20260508003747 45 22 0.0 3.0 0.00 0.02 0.02 78 1010.7
20260508003547 45 22 0.0 3.0 0.00 0.02 0.02 78 1010.7
20260508003346 45 22 0.0 3.0 0.00 0.02 0.02 78 1010.7
20260508003146 45 22 0.0 3.0 0.00 0.02 0.02 78 1010.6
20260508002946 45 22 0.0 4.0 0.00 0.02 0.02 78 1010.6
20260508002745 45 22 0.0 5.0 0.00 0.02 0.02 77 1010.6
20260508002545 46 22 0.0 5.0 0.00 0.02 0.02 78 1010.6
20260508002345 46 22 0.0 5.0 0.00 0.02 0.02 77 1010.5
20260508002145 46 39 1.0 5.0 0.00 0.02 0.02 77 1010.4
20260508001944 46 90 1.0 4.0 0.00 0.02 0.02 77 1010.4
20260508001744 46 288 1.0 5.0 0.00 0.02 0.02 77 1010.5
20260508001544 46 50 1.0 5.0 0.00 0.02 0.02 77 1010.5
20260508001343 46 46 0.0 6.0 0.00 0.02 0.02 76 1010.5
20260508001143 46 48 1.0 6.0 0.00 0.02 0.02 76 1010.5
20260508000943 46 90 1.0 6.0 0.00 0.02 0.02 76 1010.5
20260508000742 46 202 1.0 6.0 0.00 0.02 0.02 77 1010.5
20260508000542 46 75 2.0 6.0 0.00 0.02 0.02 77 1010.5
20260508000342 46 21 2.0 9.0 0.00 0.02 0.02 76 1010.6
20260508000142 46 75 2.0 9.0 0.00 0.02 0.02 77 1010.6
20260507235941 46 97 1.0 9.0 0.00 0.02 0.02 78 1010.6
20260507235741 46 50 1.0 9.0 0.00 0.02 0.02 78 1010.6
20260507235541 46 126 1.0 9.0 0.00 0.02 0.02 78 1010.5
20260507235340 46 109 1.0 9.0 0.00 0.02 0.02 79 1010.6
20260507235140 46 42 1.0 6.0 0.00 0.02 0.02 79 1010.6
20260507234940 46 146 1.0 6.0 0.00 0.02 0.02 78 1010.5
20260507234739 46 124 1.0 5.0 0.00 0.02 0.02 79 1010.5
20260507234539 46 120 1.0 4.0 0.00 0.02 0.02 79 1010.5
20260507234339 46 132 1.0 6.0 0.00 0.02 0.02 79 1010.4
20260507234138 46 137 2.0 6.0 0.00 0.02 0.02 79 1010.4
20260507233938 46 94 1.0 6.0 0.00 0.02 0.02 80 1010.4
20260507233738 46 88 0.0 6.0 0.00 0.02 0.02 80 1010.5
20260507233538 46 76 1.0 6.0 0.00 0.02 0.02 79 1010.5
20260507233337 46 227 1.0 7.0 0.00 0.02 0.02 79 1010.5
20260507233137 46 129 2.0 7.0 0.00 0.02 0.02 79 1010.5
20260507232937 46 196 1.0 7.0 0.00 0.02 0.02 79 1010.5
20260507232736 46 189 2.0 7.0 0.00 0.02 0.02 78 1010.5
20260507232536 46 167 3.0 7.0 0.00 0.02 0.02 78 1010.6
20260507232336 46 95 1.0 7.0 0.00 0.02 0.02 79 1010.5
20260507232136 47 61 1.0 5.0 0.00 0.02 0.02 79 1010.5
20260507231935 46 330 1.0 5.0 0.00 0.02 0.02 79 1010.5
20260507231735 46 352 1.0 12.0 0.00 0.02 0.02 79 1010.5
20260507231535 46 344 1.0 12.0 0.00 0.02 0.02 78 1010.5
20260507231334 46 270 1.0 12.0 0.00 0.02 0.02 78 1010.6
20260507231134 46 214 2.0 12.0 0.00 0.02 0.02 78 1010.5
20260507230934 46 207 3.0 12.0 0.00 0.02 0.02 77 1010.5
20260507230733 46 226 3.0 10.0 0.00 0.02 0.02 77 1010.5
20260507230533 47 183 3.0 10.0 0.00 0.02 0.02 78 1010.5
20260507230333 47 217 4.0 11.0 0.00 0.02 0.02 78 1010.5
20260507230132 47 180 3.0 11.0 0.00 0.02 0.02 78 1010.6
20260507225932 47 126 2.0 11.0 0.00 0.02 0.02 78 1010.5
20260507225732 47 139 4.0 11.0 0.00 0.02 0.02 78 1010.5
20260507225532 47 143 4.0 11.0 0.00 0.02 0.02 78 1010.5
20260507225331 47 171 4.0 10.0 0.00 0.02 0.02 77 1010.5
20260507225131 47 225 3.0 10.0 0.00 0.02 0.02 78 1010.4
20260507224931 47 166 2.0 11.0 0.00 0.02 0.02 78 1010.4
20260507224730 47 89 2.0 11.0 0.00 0.02 0.02 78 1010.4
20260507224530 47 93 3.0 11.0 0.00 0.02 0.02 77 1010.4
20260507224330 47 127 4.0 12.0 0.00 0.02 0.02 77 1010.4
20260507224129 47 195 3.0 12.0 0.00 0.02 0.02 77 1010.4
20260507223929 47 126 2.0 12.0 0.00 0.02 0.02 77 1010.3
20260507223729 48 112 3.0 12.0 0.00 0.02 0.02 77 1010.4
20260507223529 48 115 3.0 14.0 0.00 0.02 0.02 76 1010.4
20260507223328 48 107 4.0 14.0 0.00 0.02 0.02 76 1010.3
20260507223128 48 122 3.0 14.0 0.00 0.02 0.02 76 1010.4
20260507222928 48 115 4.0 14.0 0.00 0.02 0.02 75 1010.3
20260507222727 49 132 4.0 14.0 0.00 0.02 0.02 75 1010.3
20260507222527 49 65 2.0 8.0 0.00 0.02 0.02 75 1010.3
20260507222327 49 49 1.0 4.0 0.00 0.02 0.02 74 1010.2
20260507222126 49 40 0.0 2.0 0.01 0.02 0.02 75 1010.1
20260507221926 49 40 0.0 2.0 0.01 0.02 0.02 75 1010.1
20260507221726 49 37 0.0 3.0 0.01 0.02 0.02 75 1010.2
20260507221526 49 37 0.0 3.0 0.01 0.02 0.02 76 1010.1
20260507221325 49 43 0.0 3.0 0.01 0.02 0.02 76 1010.1
20260507221125 49 30 1.0 3.0 0.01 0.02 0.02 76 1010.0
20260507220925 49 306 0.0 3.0 0.01 0.02 0.02 76 1010.0
20260507220724 49 287 0.0 1.0 0.02 0.02 0.02 75 1010.0
20260507220524 49 281 0.0 1.0 0.02 0.02 0.02 76 1010.0
20260507220324 49 281 0.0 1.0 0.02 0.02 0.02 75 1010.0
20260507220123 49 281 0.0 1.0 0.02 0.02 0.02 76 1010.0
20260507215923 49 281 0.0 1.0 0.02 0.02 0.02 75 1010.0
20260507215723 49 281 0.0 1.0 0.02 0.02 0.02 75 1010.1
20260507215523 49 281 0.0 1.0 0.02 0.02 0.02 75 1010.1
20260507215322 48 281 0.0 2.0 0.02 0.02 0.02 74 1010.0
20260507215122 48 281 0.0 3.0 0.02 0.02 0.02 75 1010.0
20260507214922 48 211 0.0 3.0 0.02 0.02 0.02 76 1010.0
20260507214721 48 298 0.0 3.0 0.02 0.02 0.02 76 1009.9
20260507214521 48 302 0.0 3.0 0.02 0.02 0.02 76 1010.0
20260507214321 48 241 0.0 3.0 0.02 0.02 0.02 77 1010.0
20260507214120 48 218 0.0 4.0 0.02 0.02 0.02 76 1010.0
20260507213920 48 218 0.0 5.0 0.02 0.02 0.02 77 1010.0
20260507213720 48 240 0.0 5.0 0.02 0.02 0.02 78 1010.0
20260507213520 48 147 1.0 6.0 0.02 0.02 0.02 78 1010.0
20260507213319 48 135 2.0 6.0 0.02 0.02 0.02 78 1010.0
20260507213119 48 73 1.0 7.0 0.02 0.02 0.02 77 1010.1
20260507212919 48 49 2.0 7.0 0.02 0.02 0.02 76 1010.0
20260507212718 48 102 1.0 8.0 0.02 0.02 0.02 76 1010.0
20260507212519 48 92 2.0 8.0 0.02 0.02 0.02 75 1010.1
20260507212318 48 133 2.0 8.0 0.02 0.02 0.02 75 1010.0
20260507212117 49 179 3.0 8.0 0.01 0.01 0.01 73 1010.1
20260507211917 49 173 2.0 6.0 0.01 0.01 0.01 73 1010.0
20260507211717 49 158 1.0 6.0 0.01 0.01 0.01 73 1009.9
20260507211517 49 175 2.0 6.0 0.01 0.01 0.01 70 1009.9
20260507211316 50 263 1.0 6.0 0.01 0.01 0.01 69 1009.9
20260507211116 50 81 1.0 7.0 0.01 0.01 0.01 69 1009.9
20260507210916 50 115 2.0 7.0 0.00 0.00 0.00 66 1009.9
20260507210715 50 98 1.0 8.0 0.00 0.00 0.00 64 1010.0
20260507210515 51 144 2.0 8.0 0.00 0.00 0.00 63 1009.9
20260507210315 51 98 2.0 8.0 0.00 0.00 0.00 61 1009.9
20260507210114 51 149 3.0 8.0 0.00 0.00 0.00 60 1009.8
20260507205914 52 102 3.0 8.0 0.00 0.00 0.00 58 1009.8
20260507205714 52 138 3.0 8.0 0.00 0.00 0.00 57 1009.7
20260507205514 53 142 2.0 8.0 0.00 0.00 0.00 57 1009.7
20260507205313 53 84 1.0 8.0 0.00 0.00 0.00 56 1009.7
20260507205113 53 130 1.0 7.0 0.00 0.00 0.00 55 1009.6
20260507204913 53 48 2.0 7.0 0.00 0.00 0.00 55 1009.5
20260507204712 53 106 1.0 5.0 0.00 0.00 0.00 55 1009.5
20260507204512 53 115 1.0 5.0 0.00 0.00 0.00 55 1009.4
20260507204312 53 135 0.0 5.0 0.00 0.00 0.00 54 1009.4
20260507204111 54 209 1.0 5.0 0.00 0.00 0.00 54 1009.4
20260507203911 54 179 1.0 4.0 0.00 0.00 0.00 54 1009.4
20260507203711 54 158 1.0 4.0 0.00 0.00 0.00 54 1009.4
20260507203511 54 147 0.0 5.0 0.00 0.00 0.00 54 1009.4
20260507203310 54 143 0.0 5.0 0.00 0.00 0.00 54 1009.4
20260507203110 54 53 0.0 5.0 0.00 0.00 0.00 54 1009.4
20260507202910 54 25 2.0 6.0 0.00 0.00 0.00 54 1009.5
20260507202709 55 10 2.0 6.0 0.00 0.00 0.00 54 1009.4
20260507202509 55 3 2.0 6.0 0.00 0.00 0.00 54 1009.4
20260507202309 55 94 2.0 6.0 0.00 0.00 0.00 54 1009.5
20260507202108 55 105 2.0 6.0 0.00 0.00 0.00 54 1009.5
20260507201908 55 101 1.0 3.0 0.00 0.00 0.00 54 1009.6
20260507201708 55 267 0.0 3.0 0.00 0.00 0.00 56 1009.4
20260507201508 54 228 0.0 3.0 0.00 0.00 0.00 56 1009.5
20260507201307 54 231 0.0 3.0 0.00 0.00 0.00 56 1009.5
20260507201107 54 139 1.0 3.0 0.00 0.00 0.00 56 1009.5
20260507200907 54 137 1.0 3.0 0.00 0.00 0.00 56 1009.6
20260507200706 54 211 1.0 6.0 0.00 0.00 0.00 56 1009.7
20260507200506 54 251 1.0 6.0 0.00 0.00 0.00 56 1009.7
20260507200306 54 0 0.0 6.0 0.00 0.00 0.00 57 1009.7
20260507200105 54 240 2.0 6.0 0.00 0.00 0.00 56 1009.7
20260507195905 54 248 2.0 6.0 0.00 0.00 0.00 57 1009.7
20260507195705 54 207 2.0 6.0 0.00 0.00 0.00 56 1009.8
20260507195504 54 178 2.0 9.0 0.00 0.00 0.00 57 1009.8
20260507195306 54 210 1.0 9.0 0.00 0.00 0.00 57 1009.8
20260507195104 53 173 1.0 9.0 0.00 0.00 0.00 58 1009.9
20260507194904 53 129 3.0 9.0 0.00 0.00 0.00 57 1010.0
20260507194703 53 133 4.0 9.0 0.00 0.00 0.00 59 1010.0
20260507194503 52 202 3.0 7.0 0.00 0.00 0.00 60 1009.9
20260507194303 52 238 2.0 9.0 0.00 0.00 0.00 62 1010.0
20260507194102 51 247 2.0 9.0 0.00 0.00 0.00 67 1010.0
20260507193902 50 229 3.0 10.0 0.00 0.00 0.00 66 1010.1
20260507193702 50 229 4.0 12.0 0.00 0.00 0.00 65 1010.1
20260507193501 50 223 4.0 13.0 0.00 0.00 0.00 64 1010.2
20260507193301 51 208 4.0 13.0 0.00 0.00 0.00 64 1010.2
20260507193101 51 164 4.0 13.0 0.00 0.00 0.00 63 1010.3
20260507192901 51 234 5.0 13.0 0.00 0.00 0.00 63 1010.2
20260507192700 52 233 5.0 13.0 0.00 0.00 0.00 60 1010.3
20260507192500 52 105 5.0 13.0 0.00 0.00 0.00 59 1010.4
20260507192300 53 185 5.0 13.0 0.00 0.00 0.00 58 1010.3
20260507192059 53 105 2.0 9.0 0.00 0.00 0.00 57 1010.3
20260507191859 53 224 2.0 7.0 0.00 0.00 0.00 57 1010.3
20260507191659 53 146 2.0 7.0 0.00 0.00 0.00 56 1010.3
20260507191458 53 86 3.0 7.0 0.00 0.00 0.00 56 1010.3
20260507191258 54 300 2.0 12.0 0.00 0.00 0.00 55 1010.3
20260507191058 54 308 1.0 12.0 0.00 0.00 0.00 56 1010.2
20260507190858 54 315 2.0 12.0 0.00 0.00 0.00 56 1010.3
20260507190657 54 62 2.0 12.0 0.00 0.00 0.00 56 1010.3
20260507190457 54 45 4.0 12.0 0.00 0.00 0.00 55 1010.3
20260507190257 54 59 4.0 10.0 0.00 0.00 0.00 54 1010.3
20260507190056 54 106 3.0 13.0 0.00 0.00 0.00 55 1010.4
20260507185856 54 139 1.0 13.0 0.00 0.00 0.00 56 1010.3
20260507185656 54 149 1.0 13.0 0.00 0.00 0.00 56 1010.2
20260507185455 54 206 2.0 13.0 0.00 0.00 0.00 56 1010.3
20260507185255 54 203 4.0 13.0 0.00 0.00 0.00 55 1010.3
20260507185055 54 239 3.0 13.0 0.00 0.00 0.00 55 1010.3
20260507184855 54 204 2.0 12.0 0.00 0.00 0.00 55 1010.3
20260507184654 54 201 3.0 12.0 0.00 0.00 0.00 56 1010.3
20260507184454 54 172 4.0 12.0 0.00 0.00 0.00 56 1010.3
20260507184254 54 179 4.0 12.0 0.00 0.00 0.00 56 1010.3
20260507184053 54 167 5.0 12.0 0.00 0.00 0.00 56 1010.3
20260507183853 54 77 2.0 11.0 0.00 0.00 0.00 57 1010.3
20260507183653 54 172 2.0 11.0 0.00 0.00 0.00 58 1010.4
20260507183452 53 197 3.0 11.0 0.00 0.00 0.00 59 1010.4
20260507183252 53 195 4.0 11.0 0.00 0.00 0.00 59 1010.4
20260507183052 53 197 4.0 10.0 0.00 0.00 0.00 58 1010.3
20260507182852 53 193 4.0 10.0 0.00 0.00 0.00 58 1010.4
20260507182651 53 192 4.0 10.0 0.00 0.00 0.00 58 1010.4
20260507182451 53 184 5.0 10.0 0.00 0.00 0.00 58 1010.4
20260507182251 53 203 4.0 9.0 0.00 0.00 0.00 58 1010.4
20260507182050 52 201 3.0 9.0 0.00 0.00 0.00 59 1010.5
20260507181850 52 177 2.0 7.0 0.00 0.00 0.00 59 1010.4
20260507181650 52 225 2.0 7.0 0.00 0.00 0.00 58 1010.4
20260507181449 52 186 2.0 11.0 0.00 0.00 0.00 59 1010.5
20260507181249 52 233 1.0 11.0 0.00 0.00 0.00 60 1010.5
20260507181049 52 241 2.0 11.0 0.00 0.00 0.00 60 1010.6
20260507180849 52 204 3.0 11.0 0.00 0.00 0.00 59 1010.6
20260507180648 52 171 4.0 11.0 0.00 0.00 0.00 58 1010.5
20260507180448 52 236 4.0 10.0 0.00 0.00 0.00 59 1010.5
20260507180248 52 213 4.0 11.0 0.00 0.00 0.00 59 1010.5
20260507180047 52 179 4.0 11.0 0.00 0.00 0.00 60 1010.6
20260507175847 52 196 2.0 11.0 0.00 0.00 0.00 60 1010.6
20260507175647 52 115 2.0 11.0 0.00 0.00 0.00 62 1010.5
20260507175446 52 197 1.0 11.0 0.00 0.00 0.00 65 1010.5
20260507175246 51 259 2.0 6.0 0.00 0.00 0.00 68 1010.5
20260507175046 51 177 1.0 6.0 0.00 0.00 0.00 69 1010.6
20260507174845 50 178 1.0 4.0 0.00 0.00 0.00 74 1010.7
20260507174645 50 345 1.0 4.0 0.00 0.00 0.00 76 1010.7
20260507174445 50 322 0.0 3.0 0.00 0.00 0.00 75 1010.7
20260507174245 49 16 1.0 3.0 0.00 0.00 0.00 76 1010.7
20260507174044 49 34 1.0 10.0 0.00 0.00 0.00 76 1010.7
20260507173844 49 39 1.0 11.0 0.00 0.00 0.00 76 1010.7
20260507173644 49 321 1.0 11.0 0.00 0.00 0.00 75 1010.7
20260507173443 50 5 2.0 11.0 0.00 0.00 0.00 74 1010.8
20260507173243 50 49 4.0 11.0 0.00 0.00 0.00 72 1010.9
20260507173043 50 18 4.0 11.0 0.00 0.00 0.00 69 1010.9
20260507172843 51 18 5.0 8.0 0.00 0.00 0.00 66 1010.8
20260507172642 52 107 4.0 8.0 0.00 0.00 0.00 64 1010.7
20260507172442 52 203 2.0 9.0 0.00 0.00 0.00 62 1010.7
20260507172242 52 215 2.0 10.0 0.00 0.00 0.00 61 1010.7
20260507172041 52 182 1.0 10.0 0.00 0.00 0.00 60 1010.6
20260507171841 52 237 1.0 10.0 0.00 0.00 0.00 60 1010.6
20260507171641 52 210 2.0 10.0 0.00 0.00 0.00 60 1010.6
20260507171440 52 211 3.0 10.0 0.00 0.00 0.00 60 1010.7
20260507171240 52 220 3.0 11.0 0.00 0.00 0.00 61 1010.7
20260507171040 52 232 3.0 11.0 0.00 0.00 0.00 61 1010.7
20260507170840 52 198 4.0 11.0 0.00 0.00 0.00 60 1010.7
20260507170639 52 184 4.0 11.0 0.00 0.00 0.00 60 1010.6
20260507170439 52 229 3.0 11.0 0.00 0.00 0.00 60 1010.7
20260507170239 52 217 3.0 9.0 0.00 0.00 0.00 60 1010.7
20260507170038 53 263 2.0 9.0 0.00 0.00 0.00 60 1010.7
20260507165838 53 232 2.0 6.0 0.00 0.00 0.00 60 1010.8
20260507165638 53 200 2.0 6.0 0.00 0.00 0.00 59 1010.8
20260507165437 53 177 2.0 6.0 0.00 0.00 0.00 58 1010.8
20260507165237 53 224 2.0 6.0 0.00 0.00 0.00 58 1010.9
20260507165037 53 227 3.0 6.0 0.00 0.00 0.00 57 1010.9
20260507164836 53 207 1.0 6.0 0.00 0.00 0.00 59 1010.9
20260507164636 53 216 2.0 5.0 0.00 0.00 0.00 60 1010.9
20260507164436 53 236 2.0 5.0 0.00 0.00 0.00 59 1010.9
20260507164236 53 273 1.0 4.0 0.00 0.00 0.00 57 1010.9
20260507164035 53 86 1.0 4.0 0.00 0.00 0.00 57 1011.0
20260507163835 53 123 2.0 4.0 0.00 0.00 0.00 56 1011.0
20260507163635 53 106 1.0 4.0 0.00 0.00 0.00 55 1011.1
20260507163434 53 61 1.0 4.0 0.00 0.00 0.00 54 1011.0
20260507163234 53 165 2.0 4.0 0.00 0.00 0.00 57 1011.0
20260507163034 53 163 1.0 4.0 0.00 0.00 0.00 57 1011.0
20260507162834 53 143 1.0 4.0 0.00 0.00 0.00 57 1011.0
20260507162633 54 171 1.0 4.0 0.00 0.00 0.00 58 1011.0
20260507162433 54 58 1.0 12.0 0.00 0.00 0.00 60 1011.1
20260507162233 54 214 1.0 13.0 0.00 0.00 0.00 58 1011.1
20260507162032 54 227 1.0 13.0 0.00 0.00 0.00 58 1011.1
20260507161832 54 212 2.0 13.0 0.00 0.00 0.00 58 1011.1
20260507161632 54 170 4.0 13.0 0.00 0.00 0.00 58 1011.1
20260507161431 54 221 2.0 13.0 0.00 0.00 0.00 58 1011.1
20260507161231 54 200 1.0 5.0 0.00 0.00 0.00 57 1011.1
20260507161031 55 217 1.0 5.0 0.00 0.00 0.00 57 1011.1
20260507160830 54 25 0.0 4.0 0.00 0.00 0.00 57 1011.1
20260507160630 54 25 1.0 4.0 0.00 0.00 0.00 56 1011.2
20260507160430 55 72 1.0 4.0 0.00 0.00 0.00 55 1011.2
20260507160230 55 165 1.0 4.0 0.00 0.00 0.00 56 1011.2
20260507160029 55 210 2.0 7.0 0.00 0.00 0.00 55 1011.2
20260507155829 55 257 1.0 7.0 0.00 0.00 0.00 57 1011.2
20260507155629 54 234 0.0 7.0 0.00 0.00 0.00 60 1011.2
20260507155428 54 216 2.0 7.0 0.00 0.00 0.00 57 1011.2
20260507155228 54 210 3.0 7.0 0.00 0.00 0.00 57 1011.3
20260507155028 54 205 2.0 6.0 0.00 0.00 0.00 56 1011.2
20260507154827 54 188 2.0 5.0 0.00 0.00 0.00 56 1011.3
20260507154627 54 152 2.0 5.0 0.00 0.00 0.00 55 1011.2
20260507154427 54 333 2.0 5.0 0.00 0.00 0.00 54 1011.3
20260507154227 55 324 2.0 5.0 0.00 0.00 0.00 55 1011.3
20260507154026 55 232 1.0 5.0 0.00 0.00 0.00 54 1011.3
20260507153826 56 191 1.0 7.0 0.00 0.00 0.00 54 1011.3
20260507153802 56 234 0.0 8.0 0.00 0.00 0.00 54 1011.3
20260507153626 56 234 0.0 8.0 0.00 0.00 0.00 54 1011.3
20260507153425 56 235 0.0 8.0 0.00 0.00 0.00 54 1011.3
20260507153330 55 66 2.0 8.0 0.00 0.00 0.00 56 1011.3
20260507153225 55 170 1.0 8.0 0.00 0.00 0.00 55 1011.3
20260507153101 55 27 2.0 8.0 0.00 0.00 0.00 56 1011.2
20260507153025 55 66 2.0 8.0 0.00 0.00 0.00 56 1011.3
20260507152832 55 118 0.0 4.0 0.00 0.00 0.00 55 1011.3
20260507152824 55 27 2.0 8.0 0.00 0.00 0.00 56 1011.2
20260507152624 55 38 2.0 7.0 0.00 0.00 0.00 56 1011.4
20260507152424 55 84 2.0 7.0 0.00 0.00 0.00 56 1011.4
20260507152224 55 118 0.0 4.0 0.00 0.00 0.00 55 1011.3
20260507152023 55 72 1.0 4.0 0.00 0.00 0.00 55 1011.3
20260507151923 55 44 1.0 4.0 0.00 0.00 0.00 57 1011.3
20260507151823 55 44 1.0 4.0 0.00 0.00 0.00 57 1011.3
20260507151623 55 53 1.0 4.0 0.00 0.00 0.00 60 1011.4
20260507151422 54 9 0.0 4.0 0.00 0.00 0.00 60 1011.3
20260507151222 54 0 0.0 3.0 0.00 0.00 0.00 56 1011.3
20260507151022 53 178 0.0 3.0 0.00 0.00 0.00 58 1011.3
20260507150821 53 27 1.0 3.0 0.00 0.00 0.00 57 1011.3
20260507150621 52 46 0.0 3.0 0.00 0.00 0.00 60 1011.4
20260507150421 52 72 0.0 3.0 0.00 0.00 0.00 60 1011.4
20260507150221 52 72 1.0 4.0 0.00 0.00 0.00 63 1011.5
20260507150020 52 52 1.0 5.0 0.00 0.00 0.00 63 1011.4
20260507145820 52 22 1.0 5.0 0.00 0.00 0.00 63 1011.4
20260507145620 52 19 2.0 6.0 0.00 0.00 0.00 64 1011.5
20260507145419 52 31 2.0 6.0 0.00 0.00 0.00 64 1011.5
20260507145219 52 80 1.0 6.0 0.00 0.00 0.00 63 1011.5
20260507145019 53 139 1.0 6.0 0.00 0.00 0.00 62 1011.5
20260507144818 53 77 1.0 4.0 0.00 0.00 0.00 63 1011.5
20260507144618 53 61 0.0 4.0 0.00 0.00 0.00 63 1011.4
20260507144418 53 59 0.0 4.0 0.00 0.00 0.00 63 1011.5
20260507144218 53 43 0.0 4.0 0.00 0.00 0.00 64 1011.5
20260507144017 53 255 1.0 4.0 0.00 0.00 0.00 64 1011.5
20260507143817 53 254 1.0 4.0 0.00 0.00 0.00 64 1011.4
20260507143617 52 216 0.0 3.0 0.00 0.00 0.00 66 1011.5
20260507143416 52 214 1.0 6.0 0.00 0.00 0.00 65 1011.5
20260507143216 52 241 1.0 6.0 0.00 0.00 0.00 65 1011.5
20260507143016 52 55 0.0 6.0 0.00 0.00 0.00 65 1011.5
20260507142815 52 42 1.0 6.0 0.00 0.00 0.00 63 1011.6
20260507142615 52 19 2.0 9.0 0.00 0.00 0.00 64 1011.5
20260507142415 52 42 2.0 9.0 0.00 0.00 0.00 63 1011.6
20260507142215 52 51 1.0 9.0 0.00 0.00 0.00 64 1011.5
20260507142014 52 46 1.0 9.0 0.00 0.00 0.00 64 1011.5
20260507141814 52 43 3.0 9.0 0.00 0.00 0.00 63 1011.5
20260507141614 52 52 1.0 4.0 0.00 0.00 0.00 65 1011.5
20260507141413 52 144 1.0 4.0 0.00 0.00 0.00 63 1011.6
20260507141213 52 197 1.0 2.0 0.00 0.00 0.00 64 1011.6
20260507141013 52 118 0.0 7.0 0.00 0.00 0.00 64 1011.7
20260507140812 51 21 0.0 8.0 0.00 0.00 0.00 65 1011.7
20260507140612 51 17 1.0 9.0 0.00 0.00 0.00 66 1011.7
20260507140412 51 27 2.0 9.0 0.00 0.00 0.00 66 1011.7
20260507140211 51 40 3.0 9.0 0.00 0.00 0.00 65 1011.7
20260507140011 51 37 3.0 9.0 0.00 0.00 0.00 64 1011.8
20260507135811 51 359 1.0 6.0 0.00 0.00 0.00 65 1011.8
20260507135611 51 360 2.0 6.0 0.00 0.00 0.00 64 1011.8
20260507135410 51 25 3.0 7.0 0.00 0.00 0.00 65 1011.8
20260507135210 51 33 2.0 7.0 0.00 0.00 0.00 65 1011.8
20260507135010 51 13 2.0 7.0 0.00 0.00 0.00 66 1011.8
20260507134809 51 6 3.0 7.0 0.00 0.00 0.00 65 1011.8
20260507134609 51 29 4.0 7.0 0.00 0.00 0.00 65 1011.8
20260507134409 51 24 2.0 7.0 0.00 0.00 0.00 65 1011.8
20260507134208 51 50 2.0 7.0 0.00 0.00 0.00 65 1011.7
20260507134008 51 52 2.0 7.0 0.00 0.00 0.00 65 1011.9
20260507133808 51 49 2.0 6.0 0.00 0.00 0.00 64 1011.8
20260507133608 52 46 2.0 6.0 0.00 0.00 0.00 64 1011.9
20260507133407 52 51 2.0 5.0 0.00 0.00 0.00 63 1011.9
20260507133207 53 52 1.0 4.0 0.00 0.00 0.00 64 1011.9
20260507133007 53 52 1.0 3.0 0.00 0.00 0.00 65 1011.9
20260507132806 53 52 0.0 3.0 0.00 0.00 0.00 65 1011.9
20260507132606 52 23 1.0 3.0 0.00 0.00 0.00 65 1011.9
20260507132406 52 12 1.0 3.0 0.00 0.00 0.00 65 1011.9
20260507132206 52 17 1.0 3.0 0.00 0.00 0.00 65 1011.9
20260507132005 52 26 1.0 4.0 0.00 0.00 0.00 65 1011.9
20260507131805 52 27 0.0 4.0 0.00 0.00 0.00 64 1011.9
20260507131605 52 28 0.0 4.0 0.00 0.00 0.00 65 1012.0
20260507131404 51 359 1.0 4.0 0.00 0.00 0.00 65 1012.0
20260507131204 51 0 0.0 4.0 0.00 0.00 0.00 66 1012.0
20260507131004 51 266 0.0 3.0 0.00 0.00 0.00 66 1011.9
20260507130803 51 255 0.0 3.0 0.00 0.00 0.00 66 1011.9
20260507130603 51 253 1.0 3.0 0.00 0.00 0.00 66 1011.9
20260507130403 51 253 1.0 3.0 0.00 0.00 0.00 64 1012.0
20260507130203 52 253 0.0 3.0 0.00 0.00 0.00 64 1012.1
20260507130002 52 253 0.0 3.0 0.00 0.00 0.00 66 1012.0
20260507125802 51 253 0.0 3.0 0.00 0.00 0.00 68 1012.0
20260507125602 50 241 0.0 3.0 0.00 0.00 0.00 69 1012.0
20260507125401 50 231 0.0 3.0 0.00 0.00 0.00 69 1012.0
20260507125201 49 236 0.0 2.0 0.00 0.00 0.00 70 1012.0
20260507125001 49 240 0.0 2.0 0.00 0.00 0.00 72 1012.0
20260507124800 49 0 0.0 2.0 0.00 0.00 0.00 72 1012.1
20260507124600 48 240 0.0 2.0 0.00 0.00 0.00 73 1012.0
20260507124400 48 240 0.0 2.0 0.00 0.00 0.00 74 1012.1
20260507124200 47 0 0.0 2.0 0.00 0.00 0.00 76 1012.1
20260507123959 46 240 0.0 2.0 0.00 0.00 0.00 76 1012.0
20260507123759 46 240 0.0 2.0 0.00 0.00 0.00 76 1012.0
20260507123559 46 240 0.0 3.0 0.00 0.00 0.00 76 1012.0
20260507123358 45 240 0.0 4.0 0.00 0.00 0.00 76 1012.0
20260507123158 45 238 0.0 4.0 0.00 0.00 0.00 77 1012.0
20260507122958 44 234 1.0 4.0 0.00 0.00 0.00 78 1012.1
20260507122757 44 217 1.0 4.0 0.00 0.00 0.00 78 1012.0
20260507122557 44 25 0.0 4.0 0.00 0.00 0.00 79 1012.0
20260507122357 44 316 1.0 3.0 0.00 0.00 0.00 79 1012.0
20260507122156 43 214 0.0 3.0 0.00 0.00 0.00 80 1012.0
20260507121956 43 214 0.0 2.0 0.00 0.00 0.00 80 1012.0
20260507121757 42 214 0.0 3.0 0.00 0.00 0.00 81 1012.0
20260507121556 42 214 0.0 4.0 0.00 0.00 0.00 82 1012.0
20260507121355 42 214 1.0 4.0 0.00 0.00 0.00 82 1012.1
20260507121155 41 215 1.0 4.0 0.00 0.00 0.00 82 1012.1
20260507120955 41 217 1.0 4.0 0.00 0.00 0.00 81 1012.1
20260507120754 41 232 1.0 4.0 0.00 0.00 0.00 82 1012.1
20260507120554 41 228 2.0 4.0 0.00 0.00 0.00 82 1012.1
20260507120354 41 220 1.0 4.0 0.00 0.00 0.00 82 1012.0
20260507120153 41 234 1.0 3.0 0.00 0.00 0.00 82 1012.0
20260507115953 41 243 0.0 3.0 0.00 0.01 0.00 83 1012.0
20260507115753 40 243 0.0 3.0 0.00 0.01 0.00 83 1012.0
20260507115553 40 243 0.0 3.0 0.00 0.01 0.00 83 1011.9
20260507115352 40 243 0.0 3.0 0.00 0.01 0.00 83 1011.9
20260507115152 40 243 1.0 3.0 0.00 0.01 0.00 83 1011.9
20260507114952 40 243 1.0 3.0 0.00 0.01 0.00 84 1011.9
20260507114751 40 243 1.0 3.0 0.00 0.01 0.00 84 1011.9
20260507114551 40 243 0.0 3.0 0.00 0.01 0.00 84 1011.9
20260507114351 40 243 0.0 3.0 0.00 0.01 0.00 84 1011.9
20260507114150 40 230 1.0 3.0 0.00 0.01 0.00 84 1012.0
20260507113950 39 244 1.0 3.0 0.00 0.01 0.00 85 1011.9
20260507113750 39 253 0.0 3.0 0.00 0.01 0.00 85 1011.8
20260507113550 39 251 0.0 3.0 0.00 0.01 0.00 85 1011.9
20260507113349 39 251 0.0 4.0 0.00 0.01 0.00 85 1011.9
20260507113149 39 251 0.0 4.0 0.00 0.01 0.00 86 1011.9
20260507112949 39 236 0.0 4.0 0.00 0.01 0.00 86 1012.0
20260507112748 38 233 1.0 4.0 0.00 0.01 0.00 86 1011.9
20260507112548 38 237 1.0 4.0 0.00 0.01 0.00 86 1011.9
20260507112348 38 236 0.0 2.0 0.00 0.01 0.00 86 1011.9
20260507112147 38 236 0.0 2.0 0.00 0.01 0.00 86 1011.8
20260507111947 38 236 0.0 2.0 0.00 0.01 0.00 86 1011.9
20260507111747 38 236 0.0 2.0 0.00 0.01 0.00 87 1011.8
20260507111547 38 236 0.0 2.0 0.00 0.01 0.00 87 1011.7
20260507111346 38 236 0.0 2.0 0.00 0.01 0.00 87 1011.8
20260507111146 38 236 0.0 2.0 0.00 0.01 0.00 87 1011.8
20260507110946 38 234 0.0 2.0 0.00 0.01 0.00 87 1011.8
20260507110745 38 237 1.0 2.0 0.00 0.01 0.00 87 1011.8
20260507110545 38 242 0.0 3.0 0.00 0.01 0.00 87 1011.8
20260507110345 38 242 0.0 3.0 0.00 0.01 0.00 87 1011.7
20260507110144 38 0 0.0 3.0 0.00 0.01 0.00 87 1011.8
20260507105944 38 241 0.0 3.0 0.00 0.01 0.00 87 1011.8
20260507105744 38 241 1.0 3.0 0.00 0.01 0.00 87 1011.7
20260507105543 38 241 1.0 3.0 0.00 0.01 0.00 86 1011.7
20260507105343 38 241 0.0 3.0 0.00 0.01 0.00 86 1011.7
20260507105143 38 241 0.0 2.0 0.00 0.01 0.00 86 1011.6
20260507104943 38 241 0.0 2.0 0.00 0.01 0.00 86 1011.6
20260507104742 38 240 0.0 2.0 0.00 0.01 0.00 86 1011.7
20260507104542 38 228 0.0 2.0 0.00 0.01 0.00 86 1011.6
20260507104342 38 208 0.0 2.0 0.00 0.01 0.00 86 1011.6
20260507104141 38 213 0.0 2.0 0.00 0.01 0.00 86 1011.6
20260507103941 38 258 0.0 2.0 0.00 0.01 0.00 86 1011.5
20260507103741 38 258 0.0 2.0 0.00 0.01 0.00 86 1011.5
20260507103540 38 258 0.0 2.0 0.00 0.01 0.00 86 1011.4
20260507103340 38 258 0.0 2.0 0.00 0.01 0.00 86 1011.4
20260507103140 38 259 0.0 2.0 0.00 0.01 0.00 86 1011.4
20260507102940 38 265 0.0 2.0 0.00 0.01 0.00 86 1011.4
20260507102739 38 265 0.0 2.0 0.00 0.01 0.00 86 1011.4
20260507102539 38 0 0.0 2.0 0.00 0.01 0.00 85 1011.5
20260507102339 38 0 0.0 2.0 0.00 0.01 0.00 85 1011.6
20260507102138 38 265 0.0 2.0 0.00 0.01 0.00 85 1011.6
20260507101938 38 0 0.0 2.0 0.00 0.01 0.00 85 1011.5
20260507101738 38 264 0.0 2.0 0.00 0.01 0.00 85 1011.6
20260507101538 38 263 0.0 2.0 0.00 0.01 0.00 85 1011.7
20260507101337 38 257 0.0 2.0 0.00 0.01 0.00 85 1011.7
20260507101137 38 225 0.0 2.0 0.00 0.01 0.00 85 1011.7
20260507100937 39 225 0.0 3.0 0.00 0.01 0.00 85 1011.8
20260507100736 39 225 0.0 3.0 0.00 0.01 0.00 84 1011.7
20260507100536 39 225 0.0 3.0 0.00 0.01 0.00 84 1011.9
20260507100336 39 225 1.0 3.0 0.00 0.01 0.00 84 1011.9
20260507100135 39 225 0.0 3.0 0.00 0.01 0.00 84 1011.9
20260507095935 39 225 0.0 3.0 0.00 0.03 0.00 84 1012.0
20260507095735 39 0 0.0 3.0 0.00 0.03 0.00 83 1012.2
20260507095534 39 225 0.0 3.0 0.00 0.03 0.00 83 1012.3
20260507095334 39 221 0.0 3.0 0.00 0.03 0.00 83 1012.3
20260507095134 39 289 0.0 2.0 0.00 0.03 0.00 82 1012.4
20260507094934 39 302 0.0 4.0 0.00 0.03 0.00 82 1012.3
20260507094733 39 67 0.0 5.0 0.00 0.03 0.00 82 1012.2
20260507094533 39 59 0.0 5.0 0.00 0.03 0.00 82 1012.3
20260507094333 39 29 0.0 5.0 0.00 0.03 0.00 82 1012.3
20260507094132 39 360 1.0 5.0 0.00 0.03 0.00 82 1012.2
20260507093932 39 338 1.0 4.0 0.00 0.03 0.00 81 1012.3
20260507093732 39 4 1.0 4.0 0.00 0.03 0.00 81 1012.2
20260507093531 39 350 1.0 4.0 0.00 0.03 0.00 81 1012.2
20260507093331 39 350 1.0 4.0 0.00 0.03 0.00 81 1012.2
20260507093131 39 4 1.0 4.0 0.00 0.03 0.00 81 1012.2
20260507092931 39 22 0.0 4.0 0.00 0.03 0.00 80 1012.2
20260507092730 39 48 1.0 4.0 0.00 0.03 0.00 80 1012.2
20260507092530 39 360 1.0 4.0 0.00 0.03 0.00 80 1012.2
20260507092330 39 8 1.0 3.0 0.00 0.03 0.00 80 1012.3
20260507092129 39 306 0.0 3.0 0.00 0.03 0.00 80 1012.2
20260507091929 39 313 0.0 3.0 0.00 0.03 0.00 79 1012.2
20260507091729 39 295 0.0 3.0 0.00 0.03 0.00 79 1012.2
20260507091528 39 336 1.0 4.0 0.00 0.03 0.00 79 1012.2
20260507091328 39 347 1.0 4.0 0.00 0.03 0.00 79 1012.3
20260507091128 39 16 0.0 6.0 0.00 0.03 0.00 79 1012.2
20260507090928 39 23 1.0 9.0 0.00 0.03 0.00 79 1012.2
20260507090727 39 32 1.0 9.0 0.00 0.03 0.00 80 1012.1
20260507090527 39 33 1.0 9.0 0.00 0.03 0.00 80 1012.2
20260507090327 39 29 3.0 9.0 0.00 0.03 0.00 80 1012.3
20260507090126 39 18 2.0 9.0 0.00 0.03 0.00 80 1012.2
20260507085926 39 16 2.0 9.0 0.00 0.05 0.00 81 1012.2
20260507085726 39 31 3.0 9.0 0.00 0.05 0.00 81 1012.2
20260507085525 39 33 2.0 6.0 0.00 0.05 0.00 82 1012.0
20260507085325 39 1 1.0 3.0 0.00 0.05 0.00 82 1011.9
20260507085125 39 246 0.0 2.0 0.00 0.05 0.00 82 1012.0
20260507084925 38 220 0.0 2.0 0.00 0.05 0.00 82 1012.0
20260507084724 38 220 0.0 2.0 0.00 0.05 0.00 83 1012.0
20260507084524 38 220 0.0 2.0 0.00 0.05 0.00 83 1012.1
20260507084324 38 0 0.0 2.0 0.00 0.05 0.00 83 1012.0
20260507084123 38 220 0.0 2.0 0.00 0.05 0.00 83 1012.1
20260507083923 38 220 0.0 2.0 0.00 0.05 0.00 84 1012.1
20260507083723 38 220 0.0 2.0 0.00 0.05 0.00 84 1012.1
20260507083522 38 0 0.0 0.0 0.00 0.05 0.00 84 1012.1
20260507083322 38 0 0.0 0.0 0.00 0.05 0.00 84 1012.1
20260507083122 38 0 0.0 0.0 0.00 0.05 0.00 84 1012.1
20260507082922 38 0 0.0 0.0 0.00 0.05 0.00 83 1012.1
20260507082721 38 0 0.0 0.0 0.00 0.05 0.00 83 1012.0
20260507082521 38 0 0.0 0.0 0.00 0.05 0.00 83 1011.9
20260507082321 38 0 0.0 0.0 0.00 0.05 0.00 83 1011.9
20260507082120 38 0 0.0 1.0 0.00 0.05 0.00 83 1012.0
20260507081920 38 0 0.0 1.0 0.00 0.05 0.00 84 1012.0
20260507081720 38 0 0.0 1.0 0.00 0.05 0.00 84 1012.0
20260507081519 38 220 0.0 1.0 0.00 0.05 0.00 85 1012.1
20260507081319 38 220 0.0 1.0 0.00 0.05 0.00 85 1012.0
20260507081119 38 0 0.0 0.0 0.00 0.05 0.00 85 1012.0
20260507080919 38 0 0.0 0.0 0.00 0.05 0.00 85 1012.0
20260507080718 38 0 0.0 0.0 0.00 0.05 0.00 85 1012.0
20260507080518 38 0 0.0 0.0 0.00 0.05 0.00 85 1012.0
20260507080318 38 0 0.0 0.0 0.00 0.05 0.00 85 1012.1
20260507080117 38 0 0.0 0.0 0.00 0.05 0.00 85 1012.1
20260507075917 38 0 0.0 0.0 0.00 0.08 0.00 85 1012.0
20260507075717 38 0 0.0 0.0 0.00 0.08 0.00 85 1012.0
20260507075516 38 0 0.0 0.0 0.00 0.08 0.00 85 1012.0
20260507075316 38 0 0.0 0.0 0.00 0.08 0.00 85 1011.9
20260507075116 38 0 0.0 2.0 0.00 0.08 0.00 84 1011.9
20260507074915 38 0 0.0 2.0 0.00 0.08 0.00 84 1011.9
20260507074715 38 0 0.0 2.0 0.00 0.08 0.00 84 1011.8
20260507074515 38 0 0.0 2.0 0.00 0.08 0.00 84 1011.7
20260507074315 38 220 0.0 2.0 0.00 0.08 0.00 85 1011.6
20260507074114 38 220 0.0 2.0 0.00 0.08 0.00 85 1011.6
20260507073914 38 220 0.0 2.0 0.00 0.08 0.00 85 1011.6
20260507073714 38 220 0.0 2.0 0.00 0.08 0.00 85 1011.6
20260507073513 38 220 0.0 2.0 0.00 0.08 0.00 86 1011.6
20260507073313 38 220 0.0 2.0 0.00 0.08 0.00 86 1011.7
20260507073113 38 220 0.0 2.0 0.00 0.08 0.00 87 1011.7
20260507072913 38 220 1.0 2.0 0.00 0.08 0.00 88 1011.7
20260507072712 37 220 0.0 2.0 0.00 0.08 0.00 88 1011.7
20260507072512 37 0 0.0 0.0 0.00 0.08 0.00 88 1011.8
20260507072312 37 0 0.0 0.0 0.00 0.08 0.00 88 1012.0
20260507072111 37 0 0.0 0.0 0.00 0.08 0.00 88 1012.0
20260507071911 37 0 0.0 0.0 0.00 0.08 0.00 89 1012.0
20260507071711 37 0 0.0 0.0 0.00 0.08 0.00 89 1012.1
20260507071510 37 0 0.0 0.0 0.00 0.08 0.00 90 1012.0
20260507071310 37 0 0.0 0.0 0.00 0.08 0.00 90 1012.0
20260507071110 37 0 0.0 0.0 0.00 0.08 0.00 90 1012.1
20260507070910 37 0 0.0 0.0 0.00 0.08 0.00 90 1012.0
20260507070709 37 0 0.0 0.0 0.00 0.08 0.00 90 1012.1
20260507070509 37 0 0.0 0.0 0.00 0.08 0.00 89 1012.0
20260507070309 37 0 0.0 0.0 0.00 0.08 0.00 89 1012.0
20260507070108 37 0 0.0 0.0 0.00 0.08 0.00 89 1012.0
20260507065908 37 0 0.0 0.0 0.00 0.13 0.00 89 1012.0
20260507065708 37 0 0.0 0.0 0.00 0.13 0.00 89 1012.0
20260507065507 38 0 0.0 0.0 0.00 0.13 0.00 89 1012.0
20260507065307 38 0 0.0 0.0 0.00 0.13 0.00 88 1011.9
20260507065107 38 0 0.0 0.0 0.00 0.13 0.00 88 1012.0
20260507064907 38 0 0.0 0.0 0.00 0.13 0.00 88 1011.9
20260507064706 38 0 0.0 0.0 0.00 0.13 0.00 87 1011.9
20260507064506 38 0 0.0 0.0 0.00 0.13 0.00 87 1011.9
20260507064306 38 0 0.0 0.0 0.00 0.13 0.00 86 1011.9
20260507064105 38 0 0.0 1.0 0.00 0.13 0.00 86 1011.9
20260507063905 38 0 0.0 1.0 0.00 0.13 0.00 87 1011.9
20260507063705 38 220 0.0 1.0 0.00 0.13 0.00 88 1011.9
20260507063504 38 220 0.0 1.0 0.00 0.13 0.00 88 1011.9
20260507063304 39 0 0.0 0.0 0.00 0.13 0.00 88 1011.9
20260507063104 39 0 0.0 0.0 0.00 0.13 0.00 88 1012.0
20260507062903 39 0 0.0 0.0 0.00 0.13 0.00 87 1012.0
20260507062703 39 0 0.0 0.0 0.00 0.13 0.00 87 1011.9
20260507062503 39 0 0.0 0.0 0.00 0.13 0.00 87 1012.0
20260507062305 39 0 0.0 0.0 0.00 0.13 0.00 87 1012.0
20260507062102 39 0 0.0 0.0 0.00 0.13 0.00 87 1012.1
20260507061902 39 0 0.0 0.0 0.00 0.13 0.00 88 1012.1
20260507061702 39 0 0.0 0.0 0.00 0.13 0.00 87 1012.0
20260507061502 39 0 0.0 0.0 0.00 0.13 0.00 87 1012.0
20260507061301 39 0 0.0 1.0 0.00 0.13 0.00 87 1012.1
20260507061101 40 0 0.0 2.0 0.00 0.13 0.00 87 1012.0
20260507060900 40 220 0.0 2.0 0.00 0.13 0.00 87 1012.0